Lid_Strength_Index
4 4 4 4 4 4 4 4 4 4 4 4 5 4 2 2 2 1 1 2 1 1 2 2 1 2 2 4 4 1 -1 0 2 2 3 4 5 5 7 6 5 6 6 5 4 5 5
5 4 4 4 4 4 4 4 4 4 4 4 5 5 4 4 2 2 2 2 2 2 1 2 3 4 3 8 0 -0 2 2 2 3 3 3 4 4 5 6 6 5 6 5 5 5 5
5 5 5 4 4 4 4 4 4 4 4 4 4 5 5 5 4 2 2 3 3 2 1 1 2 3 4 5 0 -0 0 1 1 2 3 2 2 4 5 6 5 6 7 7 6 5 6
6 5 5 5 5 5 4 4 4 4 4 4 4 4 5 6 6 5 3 3 3 3 2 1 2 2 6 1 0 1 0 1 2 2 2 1 1 4 5 5 6 7 7 10 7 6 5
6 6 6 5 5 5 5 4 4 4 4 4 4 4 4 5 6 5 4 3 3 3 3 3 4 3 7 1 3 1 0 2 2 2 2 1 2 5 6 8 9 8 11 10 8 6 6
4 4 5 5 5 5 5 5 5 4 4 4 4 4 4 5 5 5 5 4 4 3 3 4 4 6 5 6 2 1 0 1 3 3 4 4 5 7 8 9 13 11 11 9 10 7 6
4 4 4 4 3 4 4 4 4 4 5 4 4 4 4 4 5 5 5 5 7 7 6 8 8 8 6 3 2 3 1 2 3 4 8 6 9 11 9 8 8 8 9 10 8 7 7
2 3 4 4 3 3 3 3 3 3 3 4 4 4 4 4 5 6 6 7 6 6 10 7 6 6 5 5 6 4 2 5 6 9 7 8 11 8 7 7 8 8 10 10 8 7 7
1 2 2 2 3 3 3 3 3 3 3 3 3 4 4 4 4 6 8 7 3 3 10 9 7 7 7 5 7 6 4 5 7 9 8 10 8 6 7 8 9 9 10 10 10 8 7
-1 -1 -0 1 1 2 2 3 3 3 3 3 3 3 4 4 8 6 8 5 3 3 13 13 10 8 7 6 8 4 4 6 7 9 8 9 7 7 8 9 8 11 7 8 9 10 13
-1 -1 -0 -0 -1 -0 1 2 2 3 3 3 4 3 3 4 8 7 4 3 2 5 20 11 10 5 6 8 7 7 5 6 10 9 8 11 9 9 9 9 7 9 7 8 8 10 11
0 0 -0 -0 -0 -0 -0 -0 1 2 3 3 3 3 3 4 4 6 4 5 4 14 20 12 9 10 10 8 8 7 7 6 6 8 8 9 7 7 7 7 7 7 8 8 9 10 16
0 0 0 0 0 0 -0 0 0 0 2 3 3 3 4 3 7 3 3 6 14 19 11 13 11 10 10 10 10 9 10 10 11 13 13 10 10 8 7 8 7 8 10 15 17 17 17
-0 0 0 0 0 0 0 0 1 0 1 1 2 3 3 4 3 3 4 10 18 14 14 9 9 9 12 10 10 10 10 11 9 10 12 14 15 10 8 9 10 9 10 16 20 19 16
0 0 0 0 1 1 1 1 1 0 1 1 1 2 3 3 3 4 9 15 15 14 10 11 9 12 13 11 10 11 11 11 9 9 13 13 14 8 8 8 9 10 12 9 14 13 17
0 0 1 1 1 1 1 1 1 0 0 1 4 4 4 1 2 6 12 14 12 9 9 9 13 12 14 12 12 12 12 9 10 8 7 10 15 10 9 8 8 10 8 14 14 21 21
1 1 1 1 1 1 1 1 0 1 0 0 4 8 4 0 2 8 15 14 12 8 8 11 11 13 11 12 11 13 12 9 8 8 7 9 12 12 9 10 12 11 12 11 12 15 19
1 1 1 1 1 1 1 1 0 0 0 1 5 11 3 2 10 9 13 13 10 9 7 9 9 10 11 10 12 12 12 10 7 7 10 9 11 16 13 8 8 9 11 11 17 19 16
1 1 1 1 1 1 1 1 0 0 0 3 8 8 3 3 13 12 10 10 10 10 9 9 11 9 9 10 13 11 10 7 7 8 10 9 14 18 16 12 9 11 10 10 11 12 16
1 1 1 1 1 1 1 1 1 1 0 3 8 12 8 7 7 10 11 11 12 9 9 7 10 9 10 11 10 12 11 8 7 7 8 8 13 15 18 14 12 13 12 11 12 17 16
2 1 2 1 1 1 1 1 2 2 1 4 9 10 9 13 12 10 9 9 11 13 9 8 10 11 12 13 12 12 10 10 8 9 9 10 15 13 12 12 11 11 12 11 13 13 16
2 1 2 2 1 1 1 2 1 1 2 7 10 9 9 9 9 10 9 10 10 10 10 11 12 10 11 12 11 13 11 11 11 10 11 10 15 13 15 12 13 14 12 10 11 12 12
2 2 2 2 1 2 1 1 2 2 4 7 5 6 8 9 10 10 11 10 9 9 8 8 9 10 12 11 8 7 7 8 9 11 12 12 14 15 18 13 14 17 14 12 11 9 10
2 2 2 2 2 2 1 1 2 3 3 5 5 6 8 12 10 10 9 8 8 8 10 8 8 10 8 5 6 7 8 8 8 9 9 12 13 14 17 15 21 12 8 9 10 9 9
2 2 2 2 2 1 1 1 2 2 2 4 3 5 7 11 9 9 9 8 7 7 8 8 7 6 5 8 13 15 16 15 14 11 10 9 12 16 18 18 14 12 10 12 11 12 9
1 2 2 3 3 2 2 1 2 3 3 3 3 2 5 9 10 8 8 7 10 10 9 8 5 5 6 10 14 17 19 16 17 15 12 10 11 14 16 19 20 12 9 9 9 14 8
1 2 2 2 3 2 2 2 3 3 3 3 4 1 5 8 7 6 9 9 7 8 10 9 8 9 9 12 16 16 16 12 17 17 16 15 15 16 16 18 15 10 10 8 15 14 8
1 2 2 3 3 3 2 1 2 2 2 2 3 1 3 7 6 5 5 8 8 8 11 9 10 10 12 15 14 15 15 13 14 13 15 15 16 17 16 17 19 10 10 13 10 10 9
1 1 2 2 3 3 3 2 0 0 1 0 3 1 0 5 7 3 3 3 4 5 8 8 9 9 9 13 13 14 14 13 13 17 11 15 12 14 13 13 10 10 10 9 9 10 9